Location: Rooftop Observatory
(39.0308°N, 87.1711°W)
Time: 09:11:27
(UTC-05:00)

Daily predictions for brighter satellites

Satellite Brightness Start Highest point End
(mag) Time Altitude Azimuth Time Altitude Azimuth Time Altitude Azimuth
Cosmos 1766 3.9 19:29:09 10° SSE 19:32:36 32° E 19:36:05 10° NNE
COSMOS 2406 3.3 19:27:07 10° NNW 19:32:54 86° ENE 19:38:36 10° SSE
Cosmos 1934 Rocket 4.2 19:28:30 10° SSE 19:34:22 49° E 19:40:12 10° NNE
Cosmos 405 3.3 19:33:44 10° SSW 19:37:14 73° W 19:40:46 10° N
Tiangong 1 1.2 19:34:33 10° WNW 19:37:28 58° NNE 19:40:15 11° E
NOAA 12 4.4 19:32:27 10° S 19:37:46 77° WSW 19:43:05 10° NNW
RESURS DK-1 3.1 19:37:43 10° N 19:41:32 35° ENE 19:45:19 10° SE
Cosmos 1844 3.8 19:37:39 10° SSW 19:43:25 85° ESE 19:49:15 10° NNE
USA 186 3.0 19:50:05 13° ENE 19:50:05 13° ENE 19:51:02 10° NE
Cosmos 1821 Rocket 4.1 19:49:40 10° S 19:56:05 86° W 20:02:28 10° N
Cosmos 1812 Rocket 3.6 19:52:59 10° S 19:57:24 88° W 20:01:50 10° N
Cosmos 2344 3.7 19:53:12 10° SSW 20:00:52 88° ESE 20:09:21 10° NE
GP-B 4.2 19:58:25 13° SE 20:01:23 24° E 20:04:55 10° NNE
USA 215 3.6 19:55:41 10° ENE 20:01:48 41° SE 20:07:52 10° SSW
Spot 2 Rocket 3.5 19:56:48 10° SSE 20:01:50 66° ENE 20:06:55 10° N
CZ-2D R/B 3.5 19:58:25 10° SSE 20:02:07 47° ENE 20:05:51 10° N
Cosmos 1674 4.4 20:00:36 10° NE 20:02:53 15° ENE 20:02:55 15° ENE
Resurs 01 Rocket 1.5 19:59:45 10° SSE 20:04:08 73° ENE 20:08:33 10° N
Cosmos 1805 3.5 20:04:03 10° SSE 20:07:44 42° E 20:11:26 10° NNE
Cosmos 1076 Rocket 4.2 20:06:37 10° NNE 20:10:25 31° ENE 20:12:27 21° ESE
Meteor 1-22 Rocket 4.5 20:06:37 10° SSW 20:12:23 79° W 20:18:26 10° N
Cosmos 1437 Rocket 4.3 20:08:54 10° SSW 20:12:40 41° WNW 20:16:32 10° N
Delta 2 Rocket 4.1 20:09:09 10° W 20:13:41 45° SSW 20:16:04 22° SE
Cosmos 1605 Rocket 3.9 20:07:50 10° S 20:14:02 72° E 20:20:22 10° NNE
ALOS 3.0 20:10:11 10° S 20:14:44 55° W 20:19:21 10° NNW
Envisat 3.6 20:17:16 21° ESE 20:19:53 35° ENE 20:24:28 10° N
Fregat R/B Cluster 11 4.5 20:12:37 10° SSW 20:20:04 64° ESE 20:23:33 10° NE
Cosmos 1470 4.4 20:23:17 18° ENE 20:23:17 18° ENE 20:24:55 10° NE
Helios 1B rocket 2.5 20:18:06 10° NNE 20:22:09 52° E 20:26:09 10° S
SAR-Lupe-4 3.6 20:20:27 23° SE 20:22:29 56° ENE 20:26:01 10° N
CZ-4B DEB 3.6 20:22:46 30° ENE 20:22:46 30° ENE 20:25:19 10° N
In-Cosmos 22 4.0 20:17:10 10° N 20:22:31 80° E 20:27:46 10° SSE
Cosmos 1844 Rocket 4.5 20:18:41 10° WSW 20:23:46 34° WNW 20:28:52 10° N
Cosmos 1125 Rocket 3.5 20:21:26 10° S 20:26:28 53° ESE 20:31:31 10° NNE
Helios 1A 2.9 20:23:51 20° SSE 20:26:38 60° ENE 20:30:46 10° N
Cosmos 2123 Rocket 4.2 20:22:13 10° N 20:28:33 78° W 20:34:49 10° S
Lacrosse 4 Rocket 4.1 20:28:08 10° WSW 20:31:10 20° NW 20:34:13 10° N
Cosmos 1048 Rocket 4.4 20:26:58 10° N 20:31:49 41° ENE 20:33:23 32° ESE
Cosmos-2242 3.5 20:33:21 35° E 20:33:21 35° E 20:37:01 10° NNE
Geosat 4.2 20:30:11 10° NNE 20:35:12 72° WNW 20:40:11 10° SW
Cosmos 1833 Rocket 3.3 20:30:06 10° N 20:35:19 38° ENE 20:36:55 31° E
Cosmos 2278 Rocket 2.7 20:29:56 10° SSW 20:35:32 64° WNW 20:41:12 10° NNE
Cosmos 1758 3.2 20:34:30 10° S 20:38:28 90° W 20:42:28 10° N
Spot 1 4.2 20:35:29 17° SSE 20:38:59 86° ENE 20:43:51 10° NNW
Lacrosse 5 2.7 20:35:47 10° WSW 20:40:42 50° NW 20:45:39 10° NE
SAR-Lupe-1 3.9 20:40:50 40° SSE 20:42:01 89° ENE 20:45:37 10° NNW
Cosmos 2061 Rocket 4.3 20:38:33 19° SSE 20:42:45 43° E 20:48:45 10° NNE
ERS-1 Rocket 3.7 20:43:28 32° ENE 20:43:40 32° ENE 20:48:07 10° N
Cosmos 1153 Rocket 4.5 20:38:18 10° S 20:44:42 85° E 20:51:08 10° N
SL-27 R/B 4.4 20:44:16 10° NW 20:47:24 29° WSW 20:50:34 10° SSW
Cosmos 1953 2.4 20:43:56 10° SSW 20:47:59 76° W 20:52:04 10° N
Cosmos 1939 Rocket 3.0 20:48:08 53° E 20:48:14 53° ENE 20:52:17 10° N
Timation 2 Rocket 4.3 20:42:09 10° NNW 20:48:14 46° ENE 20:49:54 38° E
Cosmos 2297 3.6 20:43:19 10° SSW 20:48:59 76° ESE 20:54:45 10° NNE
Meteor 1-4 Rocket 2.7 20:46:12 10° SSW 20:49:38 66° W 20:53:06 10° N
Meteor 1-29 3.0 20:48:45 10° N 20:52:14 77° WNW 20:53:41 33° SSW
Cosmos 1544 4.3 20:50:15 10° SSW 20:53:43 43° W 20:57:14 10° N
Cosmos 1818 3.5 20:48:27 10° NNW 20:53:54 75° ENE 20:55:28 47° SE
H-2A R/B 4.3 20:48:16 10° WSW 20:54:22 51° SSE 21:54:18 10° E
H-2A R/B 4.3 20:48:15 10° WSW 20:54:22 51° SSE 21:54:18 10° E
H-2A R/B 4.3 20:48:15 10° WSW 20:54:23 51° SSE 21:54:18 10° E
H-2A R/B 4.3 20:48:16 10° WSW 20:54:23 51° SSE 21:54:18 10° E
COSMOS 2487 3.4 20:51:41 10° N 20:54:09 37° NNE 20:54:09 37° NNE
ATLAS 5 CENTAUR R/B 2.9 20:51:01 10° S 20:53:19 28° S 20:53:19 28° S
Cosmos 1269 Rocket 3.9 21:00:45 10° NNW 21:06:04 87° ENE 21:07:14 56° SSE
Cosmos 2082 Rocket 2.1 21:01:13 10° NNW 21:06:56 77° ENE 21:08:04 58° SE
Cosmos 1408 Rocket 3.6 21:05:19 10° N 21:09:47 77° W 21:10:23 64° SSW
Cosmos 1459 Rocket 3.8 21:05:20 11° S 21:11:30 81° E 21:17:43 10° N
CZ-3B DEB 4.1 21:02:51 10° WSW 21:11:37 34° NW 21:16:05 10° NNE
Lacrosse 5 rocket 3.1 21:08:47 10° NNW 21:10:52 20° N 21:10:52 20° N
Cosmos 1271 Rocket 4.0 21:14:48 34° N 21:14:48 34° N 21:17:09 10° N
Tiangong 1 3.6 21:10:40 10° W 21:11:41 17° W 21:11:41 17° W
Cosmos 2173 Rocket 3.8 21:10:13 19° S 21:14:49 84° E 21:21:05 10° N
ARGOS 4.3 21:29:20 31° NNE 21:29:20 31° NNE 21:32:37 10° N
Cosmos 1867 4.1 21:22:31 10° SW 21:27:52 57° NW 21:33:17 10° NNE
USA 215 3.8 21:38:31 10° NE 21:44:53 56° NW 21:51:13 10° WSW
Cosmos 2016 Rocket 4.0 21:45:35 70° SW 21:46:11 77° W 21:52:23 10° N
H-2A R/B 3.8 21:55:19 24° NNE 21:55:19 24° NNE 21:57:31 10° N
CZ-3 Stage 3 3.7 21:44:38 10° W 22:03:54 45° SSW 22:03:54 45° SSW
BREEZE-M DEB (TANK) 4.2 22:00:54 10° W 22:05:23 70° NNW 22:24:00 10° ENE
USA 267 3.7 22:17:25 54° N 22:17:25 54° N 22:22:43 10° NW
Cosmos 1833 Rocket 4.3 22:14:19 10° NW 22:18:39 28° W 22:18:39 28° W
